NOAA 16 DEB, 41655

Orbit data source: Space-Track

NOAA 16 DEB, 41655 is space debris in SSO originally from a launch on Thu, 21 Sep 2000 UTC launched from the Air Force Western Test Range (AFWTR). Debris objects in space refer to the collection of defunct objects orbiting the Earth. Examples of debris include non-operational satellites, rocket bodies, and fragments generated from explosions, collisions, or faulty payload assembly.

Loading next visibility...
Identifier
41655, 2000-055NU
Orbit
SSO
Country
Flag of USUS
Related business
Manufacturer
Unknown
Mission
Spacecraft
Bus & Motor
Unknown
Mass
Unknown
Launch date (UTC)
2000-09-21 (26 years ago)
Launch vehicle
Unknown
Launch site
Air Force Western Test Range (AFWTR)
Object type
Payload
Rocket body
Debris
Shape & HBR
Unknown shape, 0.1 m
Radar Cross Section
Medium (>0.1 m² and <1 m²)

Expand to show TLE details & history
Last TLE update: 21 hours ago

TLE from 21 hours ago
0 NOAA 16 DEB
1 41655U 00055NU  26257.53757740  .00003328  00000-0  11015-2 0  9997
2 41655  98.7256   3.1691 0016851 223.3156 136.6707 14.38532902540199
Epoch: 2026-09-14T12:54Z
TLE epoch observation values (Epoch: 2026-09-14T12:54:06.687Z)
Latitude
Longitude
176.12479°
Altitude
775.054 km
Speed
7.462 km/s
True Right ascension
00h 12m 40s
True Declination
0° 00' 00"
Sunlit
Object was in full shadow at epoch
Visualization orbit readout
Latitude
Unknown
Longitude
Unknown
Altitude
Unknown
Speed
Unknown
Apparent Right ascension
Unknown
Apparent Declination
Unknown
Sunlit
N/A
Visualization observer readout
Local Sidereal Time
02:30:17
Azimuth
Unknown
Elevation
Unknown
Doppler factor
Unknown
Orbital elements
Apogee altitude
772.514 km
Perigee altitude
748.455 km
Semi-major axis
7,138.621 km
Eccentricity
0.00169
Inclination
98.7256°
RAAN
3.1691°
Arg. of periapsis
223.3156°
True anomaly
136.803°
Mean anomaly
136.6707°
Eccentric anomaly
136.73687°
Mean motion
3.5985 °/min
Orbital period
100.04 mins
BSTAR
0.0011015
Loading maneuver chart data...
Computing Atmospheric mass density...
Loading historical data...
Loading historical data...
Loading historical data...
Loading historical data...
Loading historical data...
Loading historical data...
Loading historical data...

Documentation

Showing up to 5 results
|